• Join FlightAware (Why Join?)
  • Login
  • US Flag 
05:00AM EDT


 

Airport Tracker/Info


-or-


 

Live Flight TrackerFlight Track Log ✈ ABX902 ✈ 03-May-2013 ✈ KMIA - KCVG

Flight Track Log - Related Links

Times and Time Zones

All times are in EDT time to prevent confusion due to time zone crossing. See the ABX902 flight status page for this flight to view local times or setup timezone preferences in your user account.

Time Position Orientation Groundspeed Altitude Reporting Facility
EDT Latitude Longitude Course Direction KTS MPH feet Rate Location/Type
10:58PM 25.7847 -80.3156 267° West 153 176 1,000  Level Miami Center
11:00PM 25.7808 -80.3894 267° West 225 259 2,900 1,680 Climbing Miami Center
11:01PM 25.8447 -80.4211 336° Northwest 265 305 5,300 2,340 Climbing Miami Center
11:02PM 25.9178 -80.4211 360° North 265 305 8,000 2,640 Climbing Miami Center
11:03PM 25.9953 -80.4211 360° North 270 311 10,600 1,860 Climbing Miami Center
11:04PM 26.0869 -80.4261 357° North 291 335 11,800 1,860 Climbing Miami Center
11:05PM 26.1892 -80.4269 360° North 329 379 14,400 2,580 Climbing Miami Center
11:06PM 26.2806 -80.4550 345° North 362 417 17,000 2,580 Climbing Miami Center
11:07PM 26.3944 -80.4886 345° North 382 440 19,500 2,160 Climbing Miami Center
11:08PM 26.5003 -80.5244 343° North 392 451 21,300 1,860 Climbing Miami Center
11:09PM 26.6142 -80.5606 344° North 404 465 23,300 1,800 Climbing Miami Center
11:10PM 26.7281 -80.5989 343° North 420 483 25,000 1,680 Climbing Miami Center
11:11PM 26.8458 -80.6400 343° North 425 489 26,800 1,680 Climbing Miami Center
11:12PM 26.9661 -80.6764 345° North 436 502 28,400 1,500 Climbing Miami Center
11:13PM 27.0883 -80.7178 343° North 441 507 29,800 1,620 Climbing Miami Center
11:14PM 27.2103 -80.7547 345° North 446 513 31,700 1,740 Climbing Miami Center
11:15PM 27.3139 -80.7883 344° North 441 507 33,300 1,440 Climbing Miami Center
11:16PM 27.4381 -80.8256 345° North 441 507 34,600 1,260 Climbing Miami Center
11:17PM 27.5600 -80.8672 343° North 446 513 35,900 1,140 Climbing Miami Center
11:18PM 27.6803 -80.9042 345° North 446 513 36,900 480 Climbing Miami Center
11:19PM 27.8022 -80.9461 343° North 451 519 36,900  Level Miami Center
11:20PM 27.9261 -80.9858 344° North 458 527 36,900  Level Miami Center
11:21PM 28.0483 -81.0256 344° North 458 527 36,900  Level Miami Center
11:22PM 28.1703 -81.0653 344° North 452 520 36,900  Level Miami Center
11:23PM 28.3003 -81.1125 342° North 452 520 37,000  Climbing Miami Center
11:24PM 28.4139 -81.1500 344° North 457 526 37,000 -60 Level Miami Center
11:25PM 28.5519 -81.2003 342° North 453 521 36,900  Descending Jacksonville Center
11:26PM 28.6736 -81.2408 344° North 453 521 37,000  Climbing Jacksonville Center
11:27PM 28.7992 -81.2814 344° North 453 521 36,900 -60 Descending Jacksonville Center
11:28PM 28.9231 -81.3244 343° North 459 528 36,900  Level Jacksonville Center
11:29PM 29.0467 -81.3653 344° North 459 528 36,900  Level Jacksonville Center
11:30PM 29.1681 -81.4086 343° North 459 528 36,900  Level Jacksonville Center
11:31PM 29.3003 -81.4567 342° North 453 521 37,000  Climbing Jacksonville Center
11:32PM 29.4258 -81.4978 344° North 453 521 37,000  Level Jacksonville Center
11:33PM 29.5494 -81.5389 344° North 458 527 37,000  Level Jacksonville Center
11:34PM 29.6753 -81.5850 342° North 463 533 37,000  Level Jacksonville Center
11:35PM 29.7989 -81.6264 344° North 463 533 37,000  Level Jacksonville Center
11:36PM 29.9161 -81.6656 344° North 468 539 37,000  Level Jacksonville Center
11:37PM 30.0397 -81.7097 343° North 468 539 37,000 -60 Level Jacksonville Center
11:38PM 30.1781 -81.7536 345° North 458 527 36,900 -60 Descending Jacksonville Center
11:39PM 30.3014 -81.7956 344° North 463 533 36,900  Level Jacksonville Center
11:40PM 30.4272 -81.8397 343° North 463 533 36,900  Level Jacksonville Center
11:41PM 30.5528 -81.8842 343° North 457 526 37,000  Climbing Jacksonville Center
11:42PM 30.6658 -81.9289 341° North 463 533 36,900  Descending Jacksonville Center
11:43PM 30.7872 -81.9711 343° North 463 533 37,000  Climbing Jacksonville Center
11:44PM 30.9108 -82.0136 344° North 463 533 36,900 -60 Descending Jacksonville Center
11:45PM 31.0342 -82.0608 342° North 463 533 36,900  Level Jacksonville Center
11:46PM 31.1578 -82.1061 343° North 463 533 36,900  Level Jacksonville Center
11:47PM 31.2811 -82.1464 344° North 463 533 36,900  Level Jacksonville Center
11:48PM 31.4025 -82.1939 342° North 463 533 37,000  Climbing Jacksonville Center
11:49PM 31.5258 -82.2394 343° North 463 533 37,000  Level Jacksonville Center
11:50PM 31.6494 -82.2800 344° North 463 533 37,000  Level Jacksonville Center
11:51PM 31.7728 -82.3231 343° North 463 533 37,000  Level Jacksonville Center
11:52PM 31.9400 -82.3769 345° North 469 540 37,000  Level Atlanta Center
11:53PM 32.0617 -82.4239 342° North 469 540 37,000  Level Atlanta Center
11:54PM 32.1917 -82.4706 343° North 463 533 37,000  Level Atlanta Center
11:55PM 32.3236 -82.5175 343° North 463 533 37,000  Level Atlanta Center
11:56PM 32.4494 -82.5669 342° North 468 539 37,000  Level Atlanta Center
11:57PM 32.5775 -82.6142 343° North 468 539 37,000  Level Atlanta Center
11:58PM 32.7033 -82.6639 342° North 468 539 37,000  Level Atlanta Center
11:59PM 32.8331 -82.7114 343° North 473 544 37,000  Level Atlanta Center
12:00AM 32.9611 -82.7589 343° North 478 550 37,000  Level Atlanta Center
12:01AM 33.0889 -82.8042 343° North 483 556 37,000  Level Atlanta Center
12:02AM 33.2144 -82.8544 341° North 483 556 37,000  Level Atlanta Center
12:03AM 33.3486 -82.9000 344° North 496 571 37,000  Level Atlanta Center
12:04AM 33.4658 -82.9431 343° North 496 571 37,000  Level Atlanta Center
12:05AM 33.5936 -82.9914 343° North 496 571 37,000  Level Atlanta Center
12:06AM 33.7214 -83.0397 343° North 488 562 37,000  Level Atlanta Center
12:07AM 33.8553 -83.0883 343° North 488 562 37,000  Level Atlanta Center
12:08AM 33.9789 -83.1369 342° North 483 556 37,000  Level Atlanta Center
12:09AM 34.1128 -83.1858 343° North 489 563 37,000  Level Atlanta Center
12:10AM 34.2403 -83.2347 342° North 484 557 37,000  Level Atlanta Center
12:11AM 34.3722 -83.2864 342° North 490 564 37,000  Level Atlanta Center
12:12AM 34.5144 -83.3406 343° North 485 558 37,000  Level Atlanta Center
12:13AM 34.6461 -83.3900 343° North 485 558 37,000  Level Atlanta Center
12:14AM 34.7819 -83.4192 350° North 485 558 37,000  Level Atlanta Center
12:15AM 34.9156 -83.4461 351° North 485 558 37,000  Level Atlanta Center
12:16AM 35.0514 -83.4756 350° North 485 558 37,000  Level Atlanta Center
12:17AM 35.1892 -83.5000 352° North 485 558 37,000  Level Atlanta Center
12:18AM 35.3103 -83.5272 350° North 490 564 37,000  Level Atlanta Center
12:19AM 35.4481 -83.5569 350° North 495 570 37,000  Level Atlanta Center
12:20AM 35.5861 -83.5842 351° North 495 570 37,000  Level Atlanta Center
12:21AM 35.7197 -83.6117 351° North 495 570 37,000  Level Atlanta Center
12:22AM 35.8575 -83.6417 350° North 495 570 37,000  Level Atlanta Center
12:23AM 35.9911 -83.6717 350° North 495 570 37,000  Level Atlanta Center
12:25AM 36.3203 -83.7397 351° North 496 571 37,000  Level Indianapolis Center
12:26AM 36.4564 -83.7689 350° North 497 572 37,000  Level Indianapolis Center
12:27AM 36.5772 -83.7789 356° North 506 582 37,000  Level Indianapolis Center
12:28AM 36.7167 -83.7600 North 497 572 37,000  Level Indianapolis Center
12:29AM 36.8558 -83.7856 352° North 502 578 37,000  Level Indianapolis Center
12:30AM 36.9944 -83.8181 349° North 502 578 37,000 -60 Level Indianapolis Center
12:31AM 37.1328 -83.8508 349° North 503 579 36,900 -1,620 Descending Indianapolis Center
12:32AM 37.2944 -83.8900 349° North 503 579 33,800 -3,060 Descending Indianapolis Center
12:33AM 37.4336 -83.9219 350° North 505 581 30,700 -2,820 Descending Indianapolis Center
12:34AM 37.5683 -83.9517 350° North 492 566 28,200 -2,340 Descending Indianapolis Center
12:36AM 37.6972 -83.9814 350° North 473 544 26,000 -2,400 Descending Indianapolis Center
12:37AM 37.8244 -84.0111 350° North 464 534 23,400 -2,580 Descending Indianapolis Center
12:38AM 37.9478 -84.0389 350° North 451 519 20,800 -2,520 Descending Indianapolis Center
12:39AM 38.0694 -84.0667 350° North 442 509 18,400 -2,400 Descending Indianapolis Center
12:40AM 38.1908 -84.0933 350° North 442 509 16,000 -2,400 Descending Indianapolis Center
12:41AM 38.3083 -84.1228 349° North 431 496 13,600 -2,340 Descending Indianapolis Center
12:42AM 38.4214 -84.1497 349° North 416 479 11,300 -1,260 Descending Indianapolis Center
12:43AM 38.5153 -84.2100 333° Northwest 378 435 11,100 -180 Descending Indianapolis Center
12:44AM 38.6028 -84.2775 329° Northwest 366 421 11,000 -60 Descending Indianapolis Center
12:45AM 38.6764 -84.3331 329° Northwest 327 376 11,000 -300 Level Indianapolis Center
12:46AM 38.7539 -84.3869 332° Northwest 316 364 10,500 -840 Descending Indianapolis Center
12:47AM 38.8203 -84.4575 320° Northwest 322 371 9,400 -780 Descending Indianapolis Center
12:48AM 38.8214 -84.5606 271° West 278 320 9,000 -720 Descending Indianapolis Center
12:49AM 38.8247 -84.6469 273° West 251 289 8,000 -540 Descending Indianapolis Center
12:50AM 38.8267 -84.7325 272° West 243 280 8,000  Level Indianapolis Center
12:51AM 38.8297 -84.8178 273° West 241 277 8,000 -480 Level Indianapolis Center
12:52AM 38.8328 -84.9044 273° West 244 281 7,100 -960 Descending Indianapolis Center
12:53AM 38.8519 -84.9789 288° West 238 274 6,100 -600 Descending Indianapolis Center
12:54AM 38.9131 -85.0239 330° Northwest 251 289 6,000  Descending Indianapolis Center
12:55AM 38.9658 -85.0625 330° Northwest 227 261 6,100  Climbing Indianapolis Center
12:56AM 39.0206 -85.0428 16° North 217 250 6,100 -360 Level Indianapolis Center
12:57AM 39.0442 -84.9819 63° Northeast 196 226 5,400 -900 Descending Indianapolis Center
12:58AM 39.0475 -84.9200 86° East 179 206 4,400 -900 Descending Indianapolis Center
12:59AM 39.0464 -84.8575 91° East 172 198 3,700 -900 Descending Indianapolis Center
12:59AM 39.0500 -84.8333 79° East 156 180 3,100 -900 Descending Cincinnati TRACON
01:00AM 39.0500 -84.8000 90° East 116 133 2,500 -720 Descending Cincinnati TRACON
01:01AM 39.0500 -84.7500 90° East 109 125 1,900 -720 Descending Cincinnati TRACON